Location: Zagreb
(45.8000°N, 16.0000°E)
Time: 02:10:58
(UTC+02:00)

Transit 2A Rocket - Pass Details

Date: 23 January 2022
Orbit: 592 x 909 km, 66.7° (Epoch: 26 May)

Event Time Altitude Azimuth Distance (km) Brightness Sun altitude
Rises 18:59:45 0° 202° (SSW) 3,459 8.7 -22.6°
Reaches altitude 10° 19:02:13 10° 200° (SSW) 2,550 8.0 -23.1°
Maximum altitude 19:08:09 69° 119° (ESE) 973 5.2 -24.1°
Enters shadow 19:09:24 54° 63° (ENE) 1,094 5.4 -24.3°
Drops below altitude 10° 19:14:12 10° 37° (NE) 2,595 - -25.1°
Sets 19:16:43 0° 35° (NE) 3,524 - -25.6°
